OSCAR 7 1 7530U 74089B 25342.76999692 -.00000042 00000-0 25592-4 0 9990 2 7530 101.9966 348.9960 0012344 134.0914 38.9423 12.53694067336659 OSCAR 11 (UOSAT 2) 1 14781U 84021B 25342.83155691 .00003025 00000-0 31822-3 0 9999 2 14781 97.7810 305.9206 0009251 92.8766 267.3510 14.90121374228777 OSCAR 19 (LUSAT) 1 20442U 90005G 25342.77860660 .00000336 00000-0 13685-3 0 9990 2 20442 98.8962 354.2323 0012336 48.2473 311.9764 14.34042415875101 EYESAT A 1 22825U 93061C 25342.73308330 .00000292 00000-0 12848-3 0 9990 2 22825 98.7152 44.9908 0007453 303.0544 56.9922 14.30874743679764 ITAMSAT 1 22826U 93061D 25342.76885942 .00000333 00000-0 14270-3 0 9990 2 22826 98.7099 44.9255 0007837 284.3758 75.6555 14.31295451680074 RADIO ROSTO 1 23439U 94085A 25342.87788431 .00000106 00000-0 42183-2 0 9996 2 23439 64.8170 250.9957 0149528 39.2339 321.9310 11.27583239274445 JAS 2 1 24278U 96046B 25342.63253235 .00000031 00000-0 69654-4 0 9991 2 24278 98.5466 212.3192 0349038 230.6529 126.3200 13.53262610447397 TECHSAT 1B 1 25397U 98043D 25342.84326517 .00000209 00000-0 11040-3 0 9992 2 25397 98.9916 325.9655 0002151 63.4647 296.6751 14.24375538424237 ISS (ZARYA) 1 25544U 98067A 25342.54239145 .00012445 00000-0 23028-3 0 9993 2 25544 51.6307 163.2617 0003394 220.7658 139.3077 15.49420853542203 PCSAT 1 26931U 01043C 25342.82457894 .00000423 00000-0 18885-3 0 9994 2 26931 67.0518 16.6038 0007414 270.2318 89.7934 14.31851906263192 SAUDISAT 1C 1 27607U 02058C 25342.75770683 .00003705 00000-0 45930-3 0 9995 2 27607 64.5542 357.9060 0072047 297.3357 62.0427 14.82365314236229 CUTE-1 1 27844U 03031E 25342.79619620 .00000737 00000-0 33889-3 0 9999 2 27844 98.6765 348.7501 0009988 24.5158 335.6494 14.24174626164579 CUBESAT XI 4 1 27848U 03031J 25342.76079613 .00000608 00000-0 28674-3 0 9995 2 27848 98.6794 348.5804 0010182 41.5701 318.6250 14.23483252164286 MOZHAYETS 4 1 27939U 03042A 25342.84669657 .00001948 00000-0 31159-3 0 9990 2 27939 98.3364 156.9434 0011847 147.3371 319.8181 14.72953484187525 CUBESAT XI 5 1 28895U 05043F 25342.83867380 .00003699 00000-0 59819-3 0 9995 2 28895 98.2724 129.8506 0015407 89.7987 270.4984 14.71876954 73749 CUTE-1.7+APD 2 1 32785U 08021C 25342.85404557 .00010183 00000-0 68393-3 0 9995 2 32785 97.8093 315.8872 0008187 327.6004 32.4719 15.06972518956508 SEEDS 1 32791U 08021J 25342.44211206 .00022146 00000-0 88792-3 0 9991 2 32791 97.7448 327.4395 0000903 254.6399 105.4738 15.25028677958144 YUBELEINY 1 32953U 08025A 25342.84761589 -.00000018 00000-0 -20328-3 0 9990 2 32953 82.5018 113.8438 0019166 9.6022 350.5420 12.43171503796040 KKS-1 (KISEKI) 1 33499U 09002H 25342.69217616 .00003409 00000-0 43209-3 0 9990 2 33499 98.1174 257.2292 0007756 177.2077 182.9180 14.82411068907960 SWISSCUBE 1 35932U 09051B 25342.66432955 .00002773 00000-0 56329-3 0 9990 2 35932 98.4141 242.1714 0008095 84.9881 275.2244 14.61940269861319 BEESAT 1 35933U 09051C 25342.71626926 .00002340 00000-0 48415-3 0 9997 2 35933 98.4072 242.2437 0006526 96.1557 264.0387 14.61263565861364 ITUPSAT 1 1 35935U 09051E 25342.67944669 .00002148 00000-0 45735-3 0 9999 2 35935 98.4167 241.5889 0008599 105.7568 254.4580 14.60020211860933 XIWANG-1 (HOPE-1) 1 36122U 09072B 25342.86566897 -.00000176 00000-0 -34622-3 0 9999 2 36122 100.3770 294.9765 0007148 312.4146 47.6361 13.16431008767966 TISAT 1 1 36799U 10035E 25342.77046425 .00028056 00000-0 11848-2 0 9999 2 36799 98.0598 268.8689 0002832 140.9224 219.2216 15.23227771838637 JUGNU 1 37839U 11058B 25342.81816711 .00000676 00000-0 21311-3 0 9994 2 37839 19.9621 24.9200 0018696 133.4187 32.7803 14.13694486732050 SRMSAT 1 37841U 11058D 25342.77451105 .00000572 00000-0 16661-3 0 9991 2 37841 19.9702 131.9502 0011706 269.4480 132.3331 14.11509665730882 HORYU 2 1 38340U 12025D 25342.83085902 .00007574 00000-0 80193-3 0 9996 2 38340 98.1959 103.5083 0009512 85.7343 274.4960 14.89419168720370 STRAND 1 1 39090U 13009E 25342.77035329 .00000775 00000-0 27556-3 0 9993 2 39090 98.3823 162.7635 0009778 81.3731 278.8563 14.37000406669713 CUBEBUG 1 1 39153U 13018D 25342.68033130 .00006998 00000-0 63458-3 0 9995 2 39153 98.1414 129.6466 0012785 61.2653 298.9850 14.95602443682577 ZACUBE 1 39417U 13066B 25342.85361528 .00007686 00000-0 62718-3 0 9998 2 39417 97.8077 299.3924 0041723 159.3204 200.9719 14.99029754652194 TRITON 1 1 39427U 13066M 25342.85608304 .00004751 00000-0 58343-3 0 9994 2 39427 97.8317 252.0649 0093085 133.4748 227.4253 14.80457694645913 GOMX 1 1 39430U 13066Q 25342.81366339 .00004528 00000-0 69384-3 0 9992 2 39430 97.6589 190.1845 0129949 329.2539 30.1098 14.68556866641962 HUMSAT D 1 39433U 13066T 25342.52918560 .00107919 00000-0 14939-2 0 9995 2 39433 97.5015 343.8905 0007712 148.0645 212.1078 15.56703431657136 CUBEBUG 2 1 39440U 13066AA 25342.84921937 .00008910 00000-0 85790-3 0 9995 2 39440 97.8705 286.5254 0058372 298.9968 60.5408 14.91904364648592 FUNCUBE 1 1 39444U 13066AE 25342.80108398 .00012145 00000-0 82511-3 0 9996 2 39444 97.8055 306.0313 0040276 128.6749 231.8092 15.05850035650976 UWE-3 1 39446U 13066AG 25342.80577082 .00008157 00000-0 73239-3 0 9993 2 39446 97.8471 293.1528 0049487 232.8882 126.7811 14.95038720649115 UNISAT 6 1 40012U 14033C 25342.84295991 .00006275 00000-0 69740-3 0 9990 2 40012 97.7620 134.3883 0045839 337.1231 22.7942 14.86760844617861 DUCHIFAT 1 1 40021U 14033M 25342.81295937 .00047384 00000-0 11758-2 0 9998 2 40021 98.0787 14.2189 0007906 46.9660 313.2245 15.40181087626241 QB50P1 1 40025U 14033R 25342.72145075 .00013751 00000-0 75252-3 0 9990 2 40025 98.0969 336.0616 0010191 146.7892 213.3979 15.14337977624168 OBJECT G 1 40905U 15049G 25342.86471095 .00037325 00000-0 59630-3 0 9999 2 40905 97.4849 12.1930 0006302 182.3636 177.7588 15.53071509566788 LILACSAT 2 1 40908U 15049K 25342.84925192 .00021474 00000-0 46345-3 0 9999 2 40908 97.4915 8.1116 0006815 213.1733 146.9089 15.44547138566304 LQSAT 1 40958U 15057A 25342.85882274 .00001055 00000-0 15825-3 0 9999 2 40958 97.6599 340.8127 0017324 165.4332 194.7381 14.76439571547229 CHUBUSAT 2 1 41338U 16012B 25342.80676602 .00010362 00000-0 48639-3 0 9995 2 41338 30.9974 128.5221 0009131 297.2561 62.7149 15.18310128539433 CHUBUSAT 3 1 41339U 16012C 25342.73163652 .00008661 00000-0 42856-3 0 9998 2 41339 31.0039 134.4393 0009446 289.8621 70.1001 15.16423279539246 PRATHAM 1 41783U 16059A 25342.74455161 .00001682 00000-0 30732-3 0 9998 2 41783 97.8268 343.0930 0032822 104.4839 256.0012 14.66821797491598 ALSAT 1N 1 41789U 16059G 25342.81749300 .00001655 00000-0 28961-3 0 9994 2 41789 97.8014 349.7104 0027572 77.1601 283.2683 14.68854707492055